CST1036 KORF-CYUL

Flight info

Callsign CST1036
Flight time N/A
Altitude 37000
Route HPW DCT COLIN DCT SWANN DCT HNK DCT KRAZZ DCT PBERG CARTR5
Aircraft A339/H-SADE1E2E3GHIJ3J5M1P2RWXY/LB2D1

Departure

Time 2026-05-08 20:21
Airport Norfolk International Airport (KORF)

Arrival

Time N/A
Airport Montreal / Pierre Elliott Trudeau International Airport (CYUL)
Time Latitude Longitude Altitude Speed Heading
2026-05-08 20:00 36.89969 -76.20216 9 ft 0 kts 193°
2026-05-08 20:11 36.89984 -76.20210 9 ft 4 kts 187°
2026-05-08 20:12 36.90005 -76.20207 10 ft 4 kts 147°
2026-05-08 20:12 36.90022 -76.20224 10 ft 4 kts 109°
2026-05-08 20:12 36.90029 -76.20254 9 ft 0 kts 102°
2026-05-08 20:14 36.90028 -76.20250 9 ft 1 kts 102°
2026-05-08 20:14 36.90025 -76.20228 11 ft 5 kts 102°
2026-05-08 20:14 36.90012 -76.20157 9 ft 11 kts 102°
2026-05-08 20:14 36.89991 -76.20040 9 ft 16 kts 102°
2026-05-08 20:15 36.89968 -76.19903 9 ft 16 kts 101°
2026-05-08 20:15 36.89908 -76.19810 9 ft 13 kts 160°
2026-05-08 20:15 36.89829 -76.19844 9 ft 13 kts 210°
2026-05-08 20:15 36.89754 -76.19910 9 ft 14 kts 216°
2026-05-08 20:16 36.89676 -76.19986 9 ft 15 kts 221°
2026-05-08 20:16 36.89593 -76.20075 9 ft 16 kts 220°
2026-05-08 20:16 36.89500 -76.20167 10 ft 18 kts 218°
2026-05-08 20:16 36.89401 -76.20265 10 ft 19 kts 218°
2026-05-08 20:17 36.89295 -76.20367 10 ft 20 kts 217°
2026-05-08 20:17 36.89187 -76.20463 12 ft 19 kts 214°
2026-05-08 20:17 36.89065 -76.20557 10 ft 21 kts 210°
2026-05-08 20:17 36.88938 -76.20660 9 ft 22 kts 216°
2026-05-08 20:18 36.88815 -76.20779 9 ft 22 kts 218°
2026-05-08 20:18 36.88713 -76.20874 9 ft 13 kts 211°
2026-05-08 20:18 36.88640 -76.20838 8 ft 12 kts 140°
2026-05-08 20:18 36.88571 -76.20765 7 ft 13 kts 139°
2026-05-08 20:19 36.88557 -76.20679 8 ft 9 kts 54°
2026-05-08 20:19 36.88617 -76.20613 9 ft 16 kts 38°
2026-05-08 20:19 36.88715 -76.20515 9 ft 19 kts 38°
2026-05-08 20:19 36.88817 -76.20414 9 ft 19 kts 37°
2026-05-08 20:20 36.88896 -76.20440 10 ft 10 kts 302°
2026-05-08 20:20 36.88950 -76.20461 12 ft 8 kts
2026-05-08 20:20 36.89003 -76.20428 12 ft 9 kts 34°
2026-05-08 20:20 36.89151 -76.20285 15 ft 65 kts 39°
2026-05-08 20:21 36.89737 -76.19723 10 ft 143 kts 37°
2026-05-08 20:21 36.90661 -76.18879 361 ft 173 kts 40°
2026-05-08 20:21 36.91666 -76.17955 1079 ft 185 kts 37°
2026-05-08 20:21 36.92704 -76.16949 1877 ft 192 kts 38°
2026-05-08 20:22 36.93812 -76.15936 2487 ft 209 kts 34°
2026-05-08 20:22 36.95162 -76.15001 2907 ft 230 kts 16°
2026-05-08 20:22 36.96733 -76.14414 3319 ft 248 kts 15°
2026-05-08 20:22 36.98436 -76.13774 3828 ft 258 kts 15°
2026-05-08 20:23 37.00175 -76.13178 4375 ft 264 kts
2026-05-08 20:23 37.02022 -76.12768 4922 ft 272 kts
2026-05-08 20:23 37.03883 -76.12354 5689 ft 272 kts
2026-05-08 20:23 37.05749 -76.11914 6451 ft 273 kts
2026-05-08 20:24 37.07622 -76.11457 7171 ft 274 kts
2026-05-08 20:24 37.09508 -76.11058 7899 ft 275 kts
2026-05-08 20:24 37.11407 -76.10737 8627 ft 275 kts
2026-05-08 20:24 37.13319 -76.10534 9379 ft 276 kts
2026-05-08 20:25 37.15235 -76.10556 10067 ft 274 kts 345°
2026-05-08 20:25 37.17060 -76.11329 10413 ft 285 kts 334°
2026-05-08 20:25 37.18960 -76.12309 10595 ft 305 kts 334°
2026-05-08 20:25 37.20948 -76.13336 10914 ft 318 kts 334°
2026-05-08 20:26 37.23003 -76.14385 11562 ft 320 kts 334°
2026-05-08 20:26 37.25083 -76.15422 12188 ft 323 kts 334°
2026-05-08 20:26 37.27186 -76.16449 12850 ft 325 kts 334°
2026-05-08 20:26 37.29309 -76.17464 13502 ft 327 kts 334°
2026-05-08 20:27 37.31455 -76.18471 14108 ft 330 kts 334°
2026-05-08 20:27 37.33616 -76.19466 14662 ft 332 kts 334°
2026-05-08 20:27 37.35812 -76.20442 15201 ft 336 kts 335°
2026-05-08 20:27 37.38042 -76.21375 15774 ft 338 kts 335°
2026-05-08 20:28 37.40289 -76.22297 16349 ft 340 kts 335°
2026-05-08 20:28 37.42552 -76.23208 16897 ft 343 kts 335°
2026-05-08 20:28 37.44840 -76.24112 17445 ft 346 kts 335°
2026-05-08 20:28 37.47147 -76.25007 18001 ft 348 kts 335°
2026-05-08 20:29 37.49480 -76.25898 18508 ft 351 kts 335°
2026-05-08 20:29 37.51799 -76.26775 18973 ft 354 kts 335°
2026-05-08 20:29 37.54167 -76.27663 19448 ft 356 kts 335°
2026-05-08 20:29 37.56551 -76.28549 19937 ft 359 kts 335°
2026-05-08 20:30 37.58954 -76.29437 20418 ft 361 kts 335°
2026-05-08 20:30 37.61384 -76.30329 20910 ft 364 kts 335°
2026-05-08 20:30 37.63826 -76.31220 21397 ft 367 kts 335°
2026-05-08 20:30 37.66290 -76.32114 21876 ft 369 kts 335°
2026-05-08 20:31 37.68775 -76.33010 22360 ft 372 kts 335°